When you browse on this site, cookies collect data to enhance your experience and personalize the content and advertising you see.
Visit our Privacy Policy to learn more. By continuing to use the site, you agree to this use of cookies and data.
  • In Lithuania
  • List of Countries
  • For 7 days
  • Water Temperature
  • Weather Map
  • Weather Widgets
  • user-avatar
    Login

    Hourly Weather Sydney

    Today, 25 May, Monday

    Time Temperature Precipitation Wind Pressure Humidity
    00:00 +11°C° 0 mm 9 mps 760 mmHg 71%
    01:00 +11°C° 0 mm 9 mps 760 mmHg 73%
    02:00 +11°C° 0.1 mm 9 mps 760 mmHg 75%
    03:00 +11°C° 0.1 mm 9 mps 760 mmHg 76%
    04:00 +11°C° 0 mm 10 mps 760 mmHg 76%
    05:00 +11°C° 0.4 mm 10 mps 760 mmHg 75%
    06:00 +12°C° 0.4 mm 10 mps 760 mmHg 75%
    07:00 +12°C° 0.4 mm 9 mps 761 mmHg 74%
    08:00 +12°C° 0.7 mm 9 mps 761 mmHg 76%
    09:00 +12°C° 0.7 mm 9 mps 761 mmHg 77%
    10:00 +12°C° 0 mm 8 mps 761 mmHg 76%
    11:00 +12°C° 1.9 mm 9 mps 761 mmHg 78%
    12:00 +12°C° 1.9 mm 10 mps 761 mmHg 80%
    13:00 +12°C° 1.9 mm 10 mps 761 mmHg 82%
    14:00 +13°C° 1.2 mm 11 mps 761 mmHg 82%
    15:00 +13°C° 1.2 mm 11 mps 761 mmHg 81%
    16:00 +13°C° 0 mm 11 mps 762 mmHg 76%
    17:00 +13°C° 3.3 mm 10 mps 762 mmHg 80%
    18:00 +13°C° 3.3 mm 10 mps 762 mmHg 84%
    19:00 +13°C° 3.3 mm 10 mps 763 mmHg 88%
    20:00 +13°C° 1.2 mm 9 mps 763 mmHg 89%
    21:00 +15°C° 1.2 mm 8 mps 763 mmHg 89%
    22:00 +15°C° 1.2 mm 8 mps 764 mmHg 90%
    23:00 +15°C° 0.8 mm 7 mps 764 mmHg 90%

    Tomorrow, 26 May, Tuesday

    Time Temperature Precipitation Wind Pressure Humidity
    00:00 +15°C° 0.8 mm 7 mps 764 mmHg 89%
    01:00 +14°C° 0.8 mm 7 mps 764 mmHg 89%
    02:00 +14°C° 0.9 mm 6 mps 764 mmHg 89%
    03:00 +14°C° 0.9 mm 6 mps 764 mmHg 89%
    04:00 +13°C° 0.9 mm 6 mps 764 mmHg 88%
    05:00 +13°C° 0.6 mm 6 mps 765 mmHg 88%
    06:00 +13°C° 0.6 mm 6 mps 765 mmHg 88%
    07:00 +13°C° 0.6 mm 5 mps 765 mmHg 88%
    08:00 +14°C° 0.4 mm 5 mps 766 mmHg 87%
    09:00 +14°C° 0.4 mm 5 mps 766 mmHg 86%
    10:00 +15°C° 0.4 mm 5 mps 766 mmHg 85%
    11:00 +15°C° 0.5 mm 5 mps 766 mmHg 84%
    12:00 +16°C° 0.5 mm 6 mps 766 mmHg 82%
    13:00 +16°C° 0.5 mm 6 mps 765 mmHg 81%
    14:00 +16°C° 0.1 mm 6 mps 765 mmHg 80%
    15:00 +16°C° 0.1 mm 6 mps 765 mmHg 79%
    16:00 +15°C° 0.1 mm 6 mps 766 mmHg 78%
    17:00 +15°C° 0 mm 6 mps 766 mmHg 79%
    18:00 +14°C° 0 mm 5 mps 766 mmHg 79%
    19:00 +14°C° 0 mm 4 mps 767 mmHg 80%
    20:00 +13°C° 0 mm 4 mps 767 mmHg 81%
    21:00 +13°C° 0 mm 4 mps 767 mmHg 81%
    22:00 +13°C° 0 mm 3 mps 767 mmHg 82%
    23:00 +13°C° 0.1 mm 3 mps 767 mmHg 83%

    Day after tomorrow, 27 May, Wednesday

    Time Temperature Precipitation Wind Pressure Humidity
    00:00 +12°C° 0.1 mm 3 mps 767 mmHg 83%
    01:00 +12°C° 0.1 mm 3 mps 767 mmHg 83%
    02:00 +12°C° 0.1 mm 3 mps 767 mmHg 83%
    03:00 +13°C° 0.1 mm 2 mps 766 mmHg 83%
    04:00 +13°C° 0.1 mm 2 mps 766 mmHg 83%
    05:00 +13°C° 0 mm 2 mps 766 mmHg 83%
    06:00 +13°C° 0 mm 2 mps 767 mmHg 83%
    07:00 +13°C° 0 mm 2 mps 767 mmHg 82%
    08:00 +14°C° 0.1 mm 2 mps 767 mmHg 80%
    09:00 +14°C° 0.1 mm 2 mps 767 mmHg 77%
    10:00 +15°C° 0.1 mm 2 mps 767 mmHg 74%
    11:00 +16°C° 0.1 mm 2 mps 766 mmHg 71%
    12:00 +16°C° 0.1 mm 2 mps 765 mmHg 68%
    13:00 +17°C° 0.1 mm 2 mps 765 mmHg 65%
    14:00 +18°C° 0 mm 1 mps 765 mmHg 66%
    15:00 +18°C° 0 mm 1 mps 764 mmHg 68%
    16:00 +18°C° 0 mm 1 mps 764 mmHg 69%
    17:00 +16°C° 0 mm 1 mps 765 mmHg 74%
    18:00 +15°C° 0 mm 1 mps 765 mmHg 78%
    19:00 +13°C° 0 mm 0 mps 765 mmHg 83%
    20:00 +13°C° 0 mm 1 mps 765 mmHg 84%
    21:00 +13°C° 0 mm 1 mps 765 mmHg 86%
    22:00 +12°C° 0 mm 1 mps 766 mmHg 88%
    23:00 +12°C° 0 mm 2 mps 765 mmHg 89%

    28 May, Thursday

    Time Temperature Precipitation Wind Pressure Humidity
    00:00 +12°C° 0 mm 2 mps 765 mmHg 90%
    01:00 +12°C° 0 mm 2 mps 765 mmHg 90%
    02:00 +10°C° 0 mm 2 mps 765 mmHg 90%
    03:00 +10°C° 0 mm 2 mps 765 mmHg 89%
    04:00 +10°C° 0 mm 2 mps 765 mmHg 89%
    05:00 +10°C° 0 mm 2 mps 765 mmHg 88%
    06:00 +10°C° 0 mm 2 mps 765 mmHg 88%
    07:00 +9°C° 0 mm 3 mps 766 mmHg 88%
    08:00 +11°C° 0 mm 3 mps 766 mmHg 79%
    09:00 +14°C° 0 mm 2 mps 766 mmHg 71%
    10:00 +16°C° 0 mm 2 mps 766 mmHg 63%
    11:00 +18°C° 0 mm 2 mps 765 mmHg 57%
    12:00 +20°C° 0 mm 1 mps 765 mmHg 52%
    13:00 +22°C° 0 mm 1 mps 764 mmHg 47%
    14:00 +21°C° 0 mm 1 mps 764 mmHg 52%
    15:00 +19°C° 0 mm 2 mps 764 mmHg 57%
    16:00 +19°C° 0 mm 2 mps 764 mmHg 62%
    17:00 +17°C° 0 mm 2 mps 765 mmHg 68%
    18:00 +16°C° 0 mm 2 mps 765 mmHg 74%
    19:00 +15°C° 0 mm 1 mps 766 mmHg 79%
    20:00 +15°C° 0.1 mm 2 mps 766 mmHg 80%
    21:00 +14°C° 0.1 mm 2 mps 767 mmHg 80%
    22:00 +13°C° 0.1 mm 3 mps 767 mmHg 80%
    23:00 +12°C° 0.1 mm 3 mps 767 mmHg 81%

    29 May, Friday

    Time Temperature Precipitation Wind Pressure Humidity
    00:00 +12°C° 0.1 mm 3 mps 767 mmHg 81%
    01:00 +11°C° 0.1 mm 4 mps 767 mmHg 81%
    02:00 +11°C° 0.2 mm 4 mps 767 mmHg 82%
    03:00 +11°C° 0.2 mm 4 mps 767 mmHg 83%
    04:00 +10°C° 0.2 mm 4 mps 767 mmHg 85%
    05:00 +10°C° 0.4 mm 4 mps 768 mmHg 86%
    06:00 +10°C° 0.4 mm 4 mps 768 mmHg 87%
    07:00 +10°C° 0.4 mm 4 mps 769 mmHg 88%
    08:00 +12°C° 0.3 mm 4 mps 769 mmHg 82%
    09:00 +14°C° 0.3 mm 4 mps 769 mmHg 77%
    10:00 +15°C° 0.3 mm 4 mps 769 mmHg 71%
    11:00 +17°C° 0.2 mm 3 mps 769 mmHg 69%
    12:00 +17°C° 0.2 mm 3 mps 768 mmHg 67%
    13:00 +18°C° 0.2 mm 3 mps 767 mmHg 65%
    14:00 +18°C° 0.1 mm 3 mps 767 mmHg 67%
    15:00 +18°C° 0.1 mm 3 mps 767 mmHg 69%
    16:00 +17°C° 0.1 mm 3 mps 767 mmHg 71%
    17:00 +16°C° 0.1 mm 3 mps 768 mmHg 75%
    18:00 +15°C° 0.1 mm 2 mps 768 mmHg 79%
    19:00 +14°C° 0.1 mm 2 mps 769 mmHg 83%
    20:00 +14°C° 0 mm 2 mps 769 mmHg 85%
    21:00 +13°C° 0 mm 1 mps 769 mmHg 87%
    22:00 +13°C° 0 mm 1 mps 769 mmHg 89%
    23:00 +13°C° 0 mm 1 mps 769 mmHg 88%

    30 May, Saturday

    Time Temperature Precipitation Wind Pressure Humidity
    00:00 +13°C° 0 mm 1 mps 769 mmHg 88%
    01:00 +13°C° 0 mm 2 mps 768 mmHg 88%
    02:00 +13°C° 0 mm 2 mps 768 mmHg 87%
    03:00 +13°C° 0 mm 2 mps 768 mmHg 87%
    04:00 +14°C° 0 mm 2 mps 768 mmHg 86%
    05:00 +13°C° 0 mm 2 mps 768 mmHg 88%
    06:00 +12°C° 0 mm 2 mps 769 mmHg 89%
    07:00 +12°C° 0 mm 2 mps 769 mmHg 91%
    08:00 +14°C° 0 mm 2 mps 769 mmHg 83%
    09:00 +15°C° 0 mm 2 mps 769 mmHg 75%
    10:00 +17°C° 0 mm 2 mps 768 mmHg 67%
    11:00 +18°C° 0 mm 2 mps 768 mmHg 62%
    12:00 +19°C° 0 mm 3 mps 767 mmHg 57%
    13:00 +20°C° 0 mm 3 mps 766 mmHg 52%
    14:00 +20°C° 0 mm 4 mps 766 mmHg 55%
    15:00 +20°C° 0 mm 4 mps 766 mmHg 57%
    16:00 +19°C° 0 mm 5 mps 766 mmHg 59%
    17:00 +17°C° 0 mm 5 mps 766 mmHg 66%
    18:00 +16°C° 0 mm 5 mps 766 mmHg 72%
    19:00 +15°C° 0 mm 6 mps 766 mmHg 79%
    20:00 +14°C° 0 mm 5 mps 766 mmHg 78%
    21:00 +13°C° 0 mm 5 mps 766 mmHg 78%
    22:00 +13°C° 0 mm 5 mps 766 mmHg 78%
    23:00 +12°C° 0 mm 5 mps 766 mmHg 78%
    Show more